Home > Weather > Khanty-Mansiysk > Past weeks

Flag for Russia Past Weather in Khanty-Mansiysk, Russia — Yesterday and Last 2 Weeks

Now
63 °F

Clear.


Feels Like: 63 °F
Forecast: 58 / 74 °F
Wind: 6 mph from Northeast

Location: Hanty-Mansijsk

Current Time: Jul 24, 2016 at 8:09:00 AM

Latest Report: Jul 24, 2016 at 7:30 AM


Visibility: 4 mi

Pressure: 29.89 "Hg

Humidity: 68%

Dew Point: 52 °F

Location of Khanty-MansiyskLocation

Past Weather in Khanty-Mansiysk — Graph

°F

Khanty-Mansiysk Temperature Yesterday

Maximum temperature yesterday: 81 °F (at 3:30 PM)
Minimum temperature yesterday: 66 °F (at 11:00 PM)
Average temperature yesterday: 72 °F

High & Low Weather Summary for the Past Weeks

 TemperatureHumidityPressure
High86 °F (Jul 20, 2:30 PM)94% (Jul 9, 11:00 PM)30.09 "Hg (Jul 9, 11:00 PM)
Low61 °F (Jul 12, 3:00 AM)24% (Jul 18, 4:30 PM)29.42 "Hg (Jul 15, 12:30 PM)
Average71 °F68%29.80 "Hg
* Reported Jul 9 7:00 AM — Jul 24 7:00 AM, Khanty-Mansiysk, Weather by CustomWeather, © 2016

Note: Actual official high and low records may vary slightly from our data, if they occured in-between our weather recording intervals... More about our weather records

Advertising

Khanty-Mansiysk Weather History for the Previous 24 Hours

Scroll right to see more
 ConditionsComfort  
Time TempWeatherWind HumidityBarometerVisibility
7:00 AM
Sun, Jul 24
63 °FClear.8 mph73%29.89 "Hg4 mi
6:30 AM63 °FClear.6 mph73%29.89 "Hg4 mi
6:00 AM63 °FClear.8 mph73%29.89 "Hg6 mi
5:30 AM61 °FSunny.8 mph77%29.89 "Hg10 mi
5:00 AM63 °FSunny.8 mph77%29.89 "Hg10 mi
4:30 AM63 °FScattered clouds.6 mph77%29.89 "HgN/A
4:00 AM63 °FPassing clouds.6 mph77%29.86 "HgN/A
3:30 AM63 °FPassing clouds.6 mph73%29.86 "HgN/A
3:00 AM63 °FClear.6 mph77%29.86 "Hg10 mi
2:30 AM64 °FClear.6 mph73%29.86 "Hg10 mi
2:00 AM64 °FPassing clouds.8 mph73%29.86 "HgN/A
1:30 AM64 °FPassing clouds.6 mph73%29.86 "HgN/A
1:00 AM64 °FPassing clouds.3 mph73%29.89 "HgN/A
12:30 AM64 °FPassing clouds.6 mph73%29.86 "HgN/A
12:00 AM64 °FClear.6 mph78%29.86 "Hg10 mi
11:30 PM
Sat, Jul 23
66 °FClear.6 mph73%29.89 "Hg10 mi
11:00 PM66 °FPassing clouds.6 mph78%29.89 "HgN/A
10:30 PM68 °FPassing clouds.3 mph73%29.89 "HgN/A
10:00 PM68 °FPassing clouds.6 mph78%29.89 "HgN/A
9:30 PM68 °FPassing clouds.3 mph78%29.89 "Hg5 mi
9:00 PM70 °FPartly sunny.8 mph73%29.89 "Hg2 mi
8:30 PM70 °FDense fog.6 mph73%29.89 "Hg1 mi
8:00 PM70 °FMild.6 mph78%29.89 "Hg1 mi
7:30 PM72 °FDense fog.6 mph73%29.89 "Hg1 mi
7:00 PM73 °FMild.6 mph69%29.86 "Hg1 mi
6:30 PM73 °FDense fog.3 mph74%29.86 "Hg0 mi
6:00 PM73 °FDense fog.6 mph74%29.86 "Hg0 mi
5:30 PM75 °FDense fog.6 mph69%29.86 "Hg0 mi
5:00 PM75 °FDense fog.6 mph69%29.86 "Hg0 mi
4:30 PM79 °FScattered clouds.6 mph54%29.86 "HgN/A
4:00 PM79 °FScattered clouds.3 mph48%29.86 "HgN/A
3:30 PM81 °FScattered clouds.3 mph42%29.86 "HgN/A
3:00 PM79 °FScattered clouds.3 mph51%29.86 "HgN/A
2:30 PM79 °FScattered clouds.3 mph58%29.86 "HgN/A
2:00 PM75 °FScattered clouds.1 mph61%29.86 "HgN/A
1:30 PM75 °FScattered clouds.3 mph61%29.86 "HgN/A
1:00 PM75 °FScattered clouds.1 mph61%29.86 "HgN/A
12:30 PM75 °FScattered clouds.1 mph61%29.86 "HgN/A
12:00 PM73 °FScattered clouds.1 mph69%29.86 "HgN/A
11:30 AM73 °FScattered clouds.1 mph74%29.86 "HgN/A
11:00 AM72 °FScattered clouds.1 mph78%29.86 "HgN/A
10:30 AM72 °FScattered clouds.No wind73%29.86 "HgN/A
10:00 AM72 °FScattered clouds.No wind73%29.86 "HgN/A
9:30 AM72 °FPassing clouds.1 mph73%29.86 "HgN/A
9:00 AM72 °FSunny.No wind73%29.86 "Hg10 mi
8:30 AM72 °FSunny.No wind73%29.86 "Hg10 mi
8:00 AM70 °FSunny.No wind78%29.89 "Hg10 mi
Weather by CustomWeather, © 2016

See weather overviewHow to use our weather pages